Location: Rowland
(34.5359°N, 79.2929°W)
Time: 14:08:02
(UTC+00:00)

SR - Pass Details

Date: 10 October 2022
Orbit: 577 x 875 km, 66.7° (Epoch: 28 November)

Event Time Altitude Azimuth Distance (km) Brightness Sun altitude
Rises 09:31:05 0° 334° (NNW) 3,251 - -22.9°
Reaches altitude 10° 09:33:35 10° 335° (NNW) 2,273 - -22.4°
Exits shadow 09:33:51 11° 336° (NNW) 2,173 ? -22.4°
Maximum altitude 09:38:46 81° 64° (ENE) 712 ? -21.4°
Drops below altitude 10° 09:43:27 10° 151° (SSE) 2,064 ? -20.4°
Sets 09:45:38 0° 152° (SSE) 2,929 ? -20.0°
